Flag for Canada Weather past 2 weeks in Victoria, British Columbia, Canada

Now
45 °F

Passing clouds.


Feels Like: 43 °F
Forecast: 49 / 55 °F
Wind: 3 mph from West

Location: Victoria Int. Airportb. C.

Current Time: Oct 24, 2014 at 12:17:18 AM

Latest Report: Oct 23, 2014 at 11:00 PM


Visibility: 30 mi

Pressure: 29.97 "Hg

Humidity: 93%

Dew point: 43 °F

Location of VictoriaLocation

Historic Weather in Victoria — Graph

°F

Victoria temperature yesterday

Maximum temperature yesterday: 57 °F (at 12:46 PM)
Minimum temperature yesterday: 45 °F (at 11:00 PM)
Average temperature yesterday: 51 °F

Past Weeks' High & Low Weather Summary

 TemperatureHumidityPressure
High66 °F (Oct 9, 3:00 PM)100% (Oct 8, 11:00 PM)30.22 "Hg (Oct 8, 11:00 PM)
Low45 °F (Oct 23, 11:00 PM)56% (Oct 11, 3:00 PM)29.48 "Hg (Oct 22, 8:00 PM)
Average54 °F90%29.82 "Hg
* Reported Oct 8 11:00 PM — Oct 23 11:00 PM, Victoria, Weather by CustomWeather, © 2014

Note: Actual official high and low records may vary slightly from our data, if they occured in-between our weather recording intervals... More about our weather records

Advertising

Victoria weather history for previous 24 hours

 ConditionsComfort  
Time TempWeatherWind HumidityBarometerVisibility
11:00 PM
Oct 23
45 °FPassing clouds.3 mph93%29.97 "Hg30 mi
10:00 PM46 °FPassing clouds.6 mph87%29.95 "Hg30 mi
9:00 PM46 °FPartly cloudy.3 mph93%29.93 "Hg30 mi
8:00 PM46 °FPassing clouds.2 mph93%29.90 "Hg30 mi
7:00 PM50 °FBroken clouds.2 mph88%29.88 "Hg30 mi
6:00 PM50 °FBroken clouds.2 mph82%29.86 "Hg30 mi
5:52 PM50 °FSprinkles. Broken clouds.5 mph88%29.86 "Hg30 mi
5:00 PM52 °FBroken clouds.2 mph82%29.84 "Hg30 mi
4:00 PM50 °FBroken clouds.3 mph82%29.83 "Hg30 mi
3:00 PM55 °FBroken clouds.14 mph63%29.78 "Hg30 mi
2:00 PM57 °FScattered clouds.12 mph67%29.76 "Hg30 mi
1:00 PM57 °FBroken clouds.15 mph72%29.74 "Hg30 mi
12:46 PM57 °FBroken clouds.13 mph77%29.75 "Hg20 mi
12:00 PM54 °FLight rain. Broken clouds.12 mph88%29.73 "Hg15 mi
11:00 AM52 °FPartly sunny.12 mph88%29.71 "Hg15 mi
10:00 AM50 °FLight rain. Partly sunny.5 mph94%29.70 "Hg15 mi
9:51 AM50 °FLight rain. Broken clouds.5 mph100%29.70 "Hg20 mi
9:00 AM48 °FRain. Fog.6 mph94%29.70 "Hg5 mi
8:00 AM50 °FLight rain. Fog.3 mph100%29.67 "Hg6 mi
7:00 AM52 °FLight rain. Overcast.3 mph88%29.66 "Hg10 mi
6:04 AM50 °FRain. Mostly cloudy.2 mph94%29.67 "Hg12 mi
5:00 AM52 °FLight rain. Overcast.3 mph88%29.66 "Hg30 mi
4:00 AM50 °FPartly cloudy.9 mph94%29.67 "Hg30 mi
3:00 AM48 °FPartly cloudy.3 mph87%29.67 "Hg30 mi
2:00 AM50 °FPassing clouds.7 mph82%29.66 "Hg30 mi
1:00 AM52 °FPartly cloudy.7 mph82%29.64 "Hg20 mi
12:00 AM54 °FLight rain. Mostly cloudy.24 mph72%29.59 "Hg20 mi
Weather by CustomWeather, © 2014

See weather overviewHow to use our weather pages